Weather History for Sturgeon Bay, WI

Change the Weather History Date:

Tuesday, October 4, 2011

  Actual Average Record
Temperature  
Mean Temperature 56 °F -  
Max Temperature 71 °F 62 °F 83 °F (1922)
Min Temperature 42 °F 43 °F 29 °F (1929)
Degree Days  
Heating Degree Days 8    
Growing Degree Days 6 (Base 50)    
Moisture  
Dew Point 46 °F    
Average Humidity 73    
Maximum Humidity 100    
Minimum Humidity 41    
Precipitation  
Precipitation 0.00 in - - ()
Sea Level Pressure  
Sea Level Pressure 30.25 in    
Wind  
Wind Speed 2 mph (SSW)    
Max Wind Speed 10 mph    
Max Gust Speed -    
Visibility 8 miles    
Events      
Averages and records for this station are not official NWS values.
T = Trace of Precipitation, MM = Missing Value Source: NWS Daily Summary

Daily Weather History Graph

Daily Weather History Graph

Search for Another Location

Airport:

Trip Planner

Search our weather history database for the weather conditions in past years. The results will help you decide how hot, cold, wet, or windy it might be!

Date:

Astronomy

Oct. 04, 2011 Rise Set
Actual Time 6:51 AM CDT 6:25 PM CDT
Civil Twilight 6:21 AM CDT 6:54 PM CDT
Nautical Twilight 5:47 AM CDT 7:28 PM CDT
Astronomical Twilight 5:13 AM CDT 8:02 PM CDT
Moon 2:42 PM CDT (10/4) No Moon Set
Length of Visible Light 12h 32m
Length of Day
11h 34m
First Quarter, 56% of the Moon is Illuminated
Oct 4
First Quarter
Oct 11
Full
Oct 19
Last Quarter
Oct 26
New
Nov 2
First Quarter

Hourly Weather History & Observations

Time (CDT) Temp. Dew Point Humidity Pressure Visibility Wind Dir Wind Speed Gust Speed Precip Events Conditions
12:15 AM 46.4 °F 42.8 °F 87% 30.24 in 10.0 mi Calm Calm - N/A   Clear
12:35 AM 48.2 °F 42.8 °F 82% 30.24 in 10.0 mi Calm Calm - N/A   Clear
12:55 AM 46.4 °F 42.8 °F 87% 30.24 in 10.0 mi Calm Calm - N/A   Clear
1:15 AM 46.4 °F 42.8 °F 87% 30.25 in 10.0 mi Calm Calm - N/A   Clear
1:35 AM 46.4 °F 42.8 °F 87% 30.24 in 10.0 mi Calm Calm - N/A   Clear
1:55 AM 46.4 °F 42.8 °F 87% 30.24 in 10.0 mi Calm Calm - N/A   Clear
2:15 AM 46.4 °F 42.8 °F 87% 30.24 in 10.0 mi Calm Calm - N/A   Clear
2:35 AM 46.4 °F 42.8 °F 87% 30.24 in 10.0 mi Calm Calm - N/A   Clear
3:15 AM 46.4 °F 42.8 °F 87% 30.25 in 10.0 mi Calm Calm - N/A   Clear
3:35 AM 48.2 °F 44.6 °F 87% 30.24 in 10.0 mi Calm Calm - N/A   Clear
3:55 AM 46.4 °F 42.8 °F 87% 30.25 in 10.0 mi Calm Calm - N/A   Clear
4:15 AM 46.4 °F 42.8 °F 87% 30.26 in 9.0 mi Calm Calm - N/A   Clear
4:35 AM 44.6 °F 42.8 °F 93% 30.26 in 0.2 mi Calm Calm - N/A   Overcast
4:55 AM 44.6 °F 44.6 °F 100% 30.25 in 0.2 mi Calm Calm - N/A   Overcast
5:15 AM 44.6 °F 44.6 °F 100% 30.25 in 0.5 mi Calm Calm - N/A   Overcast
5:35 AM 44.6 °F 44.6 °F 100% 30.25 in 0.2 mi Calm Calm - N/A   Overcast
5:55 AM 44.6 °F 42.8 °F 93% 30.26 in 0.2 mi Calm Calm - N/A   Overcast
6:15 AM 44.6 °F 42.8 °F 93% 30.26 in 0.2 mi Calm Calm - N/A   Overcast
6:35 AM 44.6 °F 44.6 °F 100% 30.27 in 0.5 mi Calm Calm - N/A   Mostly Cloudy
6:55 AM 44.6 °F 44.6 °F 100% 30.27 in 0.5 mi Calm Calm - N/A   Mostly Cloudy
7:15 AM 42.8 °F 42.8 °F 100% 30.27 in 0.2 mi Calm Calm - N/A   Mostly Cloudy
7:35 AM 44.6 °F 42.8 °F 93% 30.27 in 7.0 mi Calm Calm - N/A   Clear
7:55 AM 48.2 °F 48.2 °F 100% 30.28 in 10.0 mi Calm Calm - N/A   Clear
8:15 AM 50.0 °F 48.2 °F 94% 30.28 in 10.0 mi Calm Calm - N/A   Clear
8:35 AM 51.8 °F 51.8 °F 100% 30.29 in 10.0 mi Calm Calm - N/A   Clear
9:15 AM 55.4 °F 48.2 °F 77% 30.29 in 10.0 mi Calm Calm - N/A   Clear
9:35 AM 57.2 °F 46.4 °F 67% 30.29 in 10.0 mi West 4.6 mph - N/A   Clear
9:55 AM 57.2 °F 46.4 °F 67% 30.31 in 10.0 mi WSW 6.9 mph - N/A   Clear
10:15 AM 60.8 °F 46.4 °F 59% 30.31 in 10.0 mi West 6.9 mph - N/A   Clear
10:35 AM 60.8 °F 46.4 °F 59% 30.31 in 10.0 mi West 5.8 mph - N/A   Clear
10:55 AM 62.6 °F 44.6 °F 52% 30.30 in 10.0 mi West 6.9 mph - N/A   Clear
11:35 AM 64.4 °F 44.6 °F 49% 30.30 in 10.0 mi WNW 4.6 mph - N/A   Clear
11:55 AM 64.4 °F 44.6 °F 49% 30.30 in 10.0 mi WSW 5.8 mph - N/A   Clear
12:15 PM 66.2 °F 46.4 °F 49% 30.30 in 10.0 mi West 5.8 mph - N/A   Clear
12:35 PM 66.2 °F 44.6 °F 46% 30.29 in 10.0 mi West 5.8 mph - N/A   Clear
1:15 PM 69.8 °F 46.4 °F 43% 30.27 in 10.0 mi Calm Calm - N/A   Clear
1:35 PM 69.8 °F 46.4 °F 43% 30.26 in 10.0 mi West 5.8 mph - N/A   Clear
2:15 PM 69.8 °F 46.4 °F 43% 30.25 in 10.0 mi SSW 6.9 mph - N/A   Clear
2:35 PM 71.6 °F 48.2 °F 43% 30.25 in 10.0 mi SW 6.9 mph - N/A   Clear
2:55 PM 71.6 °F 46.4 °F 41% 30.24 in 10.0 mi SSW 6.9 mph - N/A   Clear
3:15 PM 71.6 °F 48.2 °F 43% 30.24 in 10.0 mi SW 5.8 mph - N/A   Clear
3:35 PM 69.8 °F 51.8 °F 53% 30.23 in 10.0 mi South 8.1 mph - N/A   Clear
3:55 PM 69.8 °F 51.8 °F 53% 30.23 in 10.0 mi South 9.2 mph - N/A   Clear
4:15 PM 69.8 °F 51.8 °F 53% 30.23 in 10.0 mi South 10.4 mph - N/A   Clear
4:35 PM 66.2 °F 50.0 °F 56% 30.22 in 10.0 mi South 6.9 mph - N/A   Clear
4:55 PM 66.2 °F 50.0 °F 56% 30.22 in 10.0 mi SSE 8.1 mph - N/A   Clear
5:15 PM 64.4 °F 48.2 °F 56% 30.22 in 10.0 mi SSE 8.1 mph - N/A   Clear
5:35 PM 62.6 °F 46.4 °F 55% 30.19 in 10.0 mi South 9.2 mph - N/A   Clear
5:55 PM 60.8 °F 48.2 °F 63% 30.19 in 10.0 mi South 5.8 mph - N/A   Clear
6:15 PM 59.0 °F 46.4 °F 63% 30.19 in 10.0 mi South 8.1 mph - N/A   Clear
6:35 PM 57.2 °F 46.4 °F 67% 30.19 in 10.0 mi South 9.2 mph - N/A   Clear
6:55 PM 55.4 °F 46.4 °F 72% 30.19 in 10.0 mi South 6.9 mph - N/A   Clear
7:15 PM 55.4 °F 46.4 °F 72% 30.19 in 10.0 mi South 6.9 mph - N/A   Clear
7:35 PM 55.4 °F 48.2 °F 77% 30.19 in 10.0 mi South 6.9 mph - N/A   Clear
7:55 PM 55.4 °F 48.2 °F 77% 30.19 in 10.0 mi South 6.9 mph - N/A   Clear
8:15 PM 55.4 °F 48.2 °F 77% 30.20 in 10.0 mi South 8.1 mph - N/A   Clear
8:35 PM 55.4 °F 48.2 °F 77% 30.20 in 10.0 mi South 8.1 mph - N/A   Clear
8:55 PM 55.4 °F 48.2 °F 77% 30.20 in 10.0 mi South 8.1 mph - N/A   Clear
9:15 PM 55.4 °F 46.4 °F 72% 30.20 in 10.0 mi South 6.9 mph - N/A   Clear
9:35 PM 55.4 °F 46.4 °F 72% 30.20 in 10.0 mi South 6.9 mph - N/A   Clear
9:55 PM 55.4 °F 46.4 °F 72% 30.20 in 10.0 mi South 6.9 mph - N/A   Clear
10:15 PM 55.4 °F 46.4 °F 72% 30.20 in 10.0 mi South 8.1 mph - N/A   Clear
10:35 PM 55.4 °F 46.4 °F 72% 30.20 in 10.0 mi South 9.2 mph - N/A   Clear
10:55 PM 55.4 °F 46.4 °F 72% 30.20 in 10.0 mi South 8.1 mph - N/A   Clear
11:15 PM 55.4 °F 46.4 °F 72% 30.20 in 10.0 mi South 8.1 mph - N/A   Clear
11:35 PM 55.4 °F 46.4 °F 72% 30.20 in 10.0 mi SSW 6.9 mph - N/A   Clear
11:55 PM 55.4 °F 46.4 °F 72% 30.20 in 10.0 mi SSW 6.9 mph - N/A   Clear